Вернуться в каталог

STARLINK-32092

АктивенСвязьVLEO
NORAD 59700·PAYLOAD·🇺🇸 United States

Запущен May 8, 2024 с Cape Canaveral Space Force Station

Loading…

Ближайшие Пролёты (ближайшие 24 часа)

TLE

СвежийSource: CelesTrak SupGP

Эпоха: Sep 14, 2026, 21:20 UTC

1 59700C 24086U   26257.88937500  .00030944  00000+0  11212-2 0  2578
2 59700  43.0037  71.5011 0001437 276.5044 188.7342 15.27551295    14

Отслеживайте STARLINK-32092 в реальном времени с AllMySat

Download on the App Store